User: anonymous   Login
Location: Caltech
(34.1382°N, 118.1253°W)
Time: 18:30:41
(UTC-07:00)
Language:

Iridium 21 - Orbit

View from above orbital plane
View from above orbital plane
View from above satellite
View from above satellite

Ground track
Ground track

The orbit data is extracted from the following two-line orbital elements,

1 25778U 99032B   15152.54711791  .00000062  00000-0  14988-4 0  9993
2 25778 086.3973 176.0707 0002436 088.2813 022.5107 14.34216234841099
Epoch (UTC): 01 June 2015 13:07:50
Eccentricity: 0.0002436
inclination: 86.3973°
perigee height: 776 km
apogee height: 779 km
right ascension of ascending node: 176.0707°
argument of perigee: 88.2813°
revolutions per day: 14.34216234
mean anomaly at epoch: 22.5107°
orbit number at epoch: 84109

The dashed part of the orbit path shows where the satellite is in the earth's shadow,  

DLR